FENGYUN 1C DEB, 30740

Orbit data source: Space-Track

FENGYUN 1C DEB, 30740 is space debris in SSO originally from a launch on Mon, 10 May 1999 UTC launched from the Taiyaun Space Center, China (TSC). Fengyun 1C debris stems from the Chinese weather satellite Fengyun-1C, which was intentionally destroyed by a Chinese anti-satellite missile in 2007. This event dramatically increased the amount of space debris, with thousands of trackable fragments posing hazards to satellites and human spaceflight. The Fengyun 1C debris cloud has become a focal point in discussions about space sustainability and the need for international regulations to prevent the creation of new debris.

Loading next visibility...
Identifier
30740, 1999-025ATA
Orbit
SSO
Country
Flag of CNCN / PRC
Related business
Manufacturer
Unknown
Mission
Spacecraft
Bus & Motor
Unknown
Mass
Unknown
Launch date (UTC)
1999-05-10 (27 years ago)
Launch vehicle
Unknown
Launch site
Taiyaun Space Center, China (TSC)
Object type
Payload
Rocket body
Debris
Shape & HBR
Unknown shape, 0.1 m
Radar Cross Section
Small (<0.1 m²)

Expand to show TLE details & history
Last TLE update: 1 day ago

TLE from 1 day ago
0 FENGYUN 1C DEB
1 30740U 99025ATA 26254.30234128  .00004765  00000-0  10722-2 0  9997
2 30740  98.6979  15.0399 0027943  25.9798 334.2795 14.56689690 16022
Epoch: 2026-09-11T07:15Z
TLE epoch observation values (Epoch: 2026-09-11T07:15:22.286Z)
Latitude
0.00002°
Longitude
-84.13061°
Altitude
689.026 km
Speed
7.521 km/s
True Right ascension
01h 00m 09s
True Declination
0° 00' 00"
Sunlit
Object was in full shadow at epoch
Visualization orbit readout
Latitude
Unknown
Longitude
Unknown
Altitude
Unknown
Speed
Unknown
Apparent Right ascension
Unknown
Apparent Declination
Unknown
Sunlit
N/A
Visualization observer readout
Local Sidereal Time
10:20:59
Azimuth
Unknown
Elevation
Unknown
Doppler factor
Unknown
Orbital elements
Apogee altitude
720.773 km
Perigee altitude
681.211 km
Semi-major axis
7,079.129 km
Eccentricity
0.00279
Inclination
98.6979°
RAAN
15.0399°
Arg. of periapsis
25.9798°
True anomaly
334.1401°
Mean anomaly
334.2795°
Eccentric anomaly
334.20984°
Mean motion
3.64396 °/min
Orbital period
98.79 mins
BSTAR
0.0010722
Loading maneuver chart data...
Computing Atmospheric mass density...

Documentation

Showing up to 5 results
|